Showing default

SES 21, 53961

Orbit data source: Space-Track

SES 21, 53961 is a payload satellite owned by SES (LU) in GEO that was launched on Tue, 04 Oct 2022 UTC via an ATLAS V 531 launch vehicle from the Air Force Eastern Test Range (AFETR). Payload-class satellites include a variety of spacecraft equipped with specific instruments for various scientific and technological missions. These include communications satellites like Starlink; space stations such as the ISS; scientific satellites like the Hubble; Earth observation satellites from companies like Planet Labs, Umbra, and HawkEye 360; GPS; miniature CubeSats for education and research; and military/defense satellites.

Loading next visibility...
Identifier
53961, 2022-123B
Orbit
GEO
Country
Flag of LULU / SES
Related business
Manufacturer
Boeing/ES
Mission
Operational Commercial Communications
Bus & Motor
BSS-702SP, R-4D
Mass
1,768 kg wet, ~1,638 kg dry
Launch date (UTC)
2022-10-04 (4 years ago)
Launch vehicle
ATLAS V 531
Launch site
Air Force Eastern Test Range (AFETR)
Object type
Payload
Rocket body
Debris
Shape & HBR
Box + 2 Pan, 15.0 m
Radar Cross Section
48.465 m², Large (>1 m²)

Expand to show TLE details & history
Last TLE update: 2 days ago

TLE from 2 days ago
0 SES 21
1 53961U 22123B   26171.39489199  .00000000  00000-0  00000+0 0  9992
2 53961   0.0398  21.6419 0001006  72.4818 185.7194  1.00268958  7243
Epoch: 2026-06-20T09:28Z
TLE epoch observation values (Epoch: 2026-06-20T09:28:38.667Z)
Latitude
-0.0578°
Longitude
-130.91702°
Altitude
35,791.123 km
Speed
3.074 km/s
True Right ascension
18h 39m 25s
True Declination
0° 03' 28"
Sunlit
Object was in daylight at epoch
Visualization orbit readout
Latitude
Unknown
Longitude
Unknown
Altitude
Unknown
Speed
Unknown
Apparent Right ascension
Unknown
Apparent Declination
Unknown
Sunlit
N/A
Visualization observer readout
Local Sidereal Time
21:57:43
Azimuth
Unknown
Elevation
Unknown
Doppler factor
Unknown
Orbital elements
Apogee altitude
35,792.7 km
Perigee altitude
35,784.216 km
Semi-major axis
42,166.595 km
Eccentricity
0.0001
Inclination
0.0398°
RAAN
21.6419°
Arg. of periapsis
72.4818°
True anomaly
185.71825°
Mean anomaly
185.7194°
Eccentric anomaly
185.71883°
Mean motion
0.25066 °/min
Orbital period
1,436.19 mins
BSTAR
0
Loading maneuver chart data...
Computing Atmospheric mass density...
Loading historical data...
Loading historical data...
Loading historical data...
Loading historical data...
Loading historical data...
Loading historical data...
Loading historical data...
Other satellites on launch #123 in the year 2022 (2022-10-04 UTC)

Documentation

Showing up to 5 results
|